USA 44

导读

USA 44是美国于1989年9月4日发射的卫星,作为美国早期军用航天体系的组成部分,该卫星承担特定军事航天任务。依托1980年代美国航天技术,它被送入预定轨道,服务于美国天基侦察、导航或通信等战略需求。该卫星延续了美国以“USA”编号保密军用卫星的传统,其具体任务参数长期未公开,是冷战时期美国太空军事部署的见证者,在当时美苏航天对抗背景下发挥了特定战略作用。

基本信息
目录编号:
20203
目录名称:
USA 44
国际标识:
1989-069B
轨道中心:
EARTH
卫星名称:
USA 44
卫星全名:
--
卫星状态:
在轨 (已飞行13462 天)
发射日期:
1989-09-04 UTC
国别 :
美国 (US)
星等 :
--
轨道信息
数据来源 国际轨道数据 AOE轨道数据
星历时间 2026-07-14T08:50:51+0800
9小时前
查看轨道信息
2026-07-12T12:00:00+0800
2天前
查看轨道信息
半长轴 42491.714km 42491.828km
偏心率 0.0010458 0.0010437
轨道倾角 14.729° 14.728°
近地点辐角 21.533° 21.659°
升交点赤经 3.870° 3.884°
平近点角 154.291° 207.376°
近地点 36069.139km 36069.342km
远地点 36158.015km 36158.04km
周期 1452.834分钟 1452.840分钟
每日圈数 0.991166 0.991162
详细信息
使用方式:
暂无
2D轨道图
3D轨道图
轨道高度分析图
轨道倾角分析图
轨道综合分析图
查看轨道综合分析图